Location: Pachuta
(32.0431°N, 88.8831°W)
Time: 07:44:27
(UTC+00:00)

Hubble Space Telescope - Visible Passes

Search period start: 23 April 2021 00:00
Search period end: 03 May 2021 00:00
Orbit: 535 x 539 km, 28.5° (Epoch: 22 April)

Date Brightness Start Highest point End Pass type
(mag) Time Alt. Az. Time Alt. Az. Time Alt. Az.
23 Apr 1.4 01:03:01 10° WSW 01:06:52 39° S 01:10:28 12° E visible
23 Apr 2.5 02:43:49 10° WSW 02:45:47 26° WSW 02:45:47 26° WSW visible
24 Apr 1.3 00:52:00 10° WSW 00:55:56 43° S 00:59:52 10° E visible
24 Apr 1.9 02:32:53 10° W 02:35:36 35° SW 02:35:36 35° SW visible
25 Apr 1.4 02:21:59 10° W 02:25:21 43° SW 02:25:21 43° SW visible
26 Apr 1.2 02:11:05 10° W 02:15:02 43° S 02:15:04 43° S visible
27 Apr 1.4 02:00:12 10° W 02:04:05 39° S 02:04:45 36° SSE visible
28 Apr 1.7 01:49:21 10° W 01:53:07 35° SSW 01:54:25 28° SSE visible
29 Apr 1.9 01:38:31 10° WSW 01:42:09 30° SSW 01:44:05 20° SSE visible
30 Apr 2.2 01:27:43 10° WSW 01:31:11 26° SSW 01:33:46 14° SSE visible
01 May 2.5 01:16:59 10° WSW 01:20:11 22° SSW 01:23:23 10° SSE visible
02 May 2.8 01:06:20 10° WSW 01:09:11 18° SSW 01:12:02 10° SSE visible
